ROU1625 KFLL-CYYZ

Flight info

Callsign ROU1625
Flight time 2h 40m
Altitude 33000
Route AGERS1 DUCEN Q87 VIYAP Q69 RICCS DCT OXMAN LINNG3
Aircraft A321/M-SDE3FGHIRWY/LB1

Departure

Time 2026-05-03 20:19
Airport Fort Lauderdale Hollywood International Airport (KFLL)

Arrival

Time 2026-05-03 23:00
Airport Toronto Pearson International Airport (CYYZ)
Time Latitude Longitude Altitude Speed Heading
2026-05-03 20:15 26.07494 -80.15992 24 ft 11 kts 270°
2026-05-03 20:15 26.07495 -80.16072 25 ft 12 kts 270°
2026-05-03 20:15 26.07495 -80.16198 25 ft 20 kts 270°
2026-05-03 20:15 26.07496 -80.16328 24 ft 15 kts 270°
2026-05-03 20:16 26.07497 -80.16434 24 ft 13 kts 270°
2026-05-03 20:16 26.07499 -80.16524 25 ft 10 kts 276°
2026-05-03 20:16 26.07499 -80.16599 24 ft 9 kts 279°
2026-05-03 20:16 26.07542 -80.16641 23 ft 8 kts 352°
2026-05-03 20:17 26.07575 -80.16644 22 ft 0 kts 358°
2026-05-03 20:17 26.07581 -80.16644 24 ft 5 kts 358°
2026-05-03 20:17 26.07657 -80.16643 21 ft 13 kts
2026-05-03 20:18 26.07679 -80.16602 24 ft 9 kts 71°
2026-05-03 20:18 26.07694 -80.16542 23 ft 9 kts 84°
2026-05-03 20:18 26.07694 -80.16268 27 ft 69 kts 91°
2026-05-03 20:18 26.07692 -80.15496 17 ft 128 kts 90°
2026-05-03 20:19 26.07695 -80.14354 174 ft 157 kts 86°
2026-05-03 20:19 26.07714 -80.13150 855 ft 156 kts 86°
2026-05-03 20:19 26.07748 -80.11936 1399 ft 160 kts 85°
2026-05-03 20:19 26.07786 -80.10673 1834 ft 167 kts 86°
2026-05-03 20:20 26.08023 -80.09355 1978 ft 182 kts 65°
2026-05-03 20:20 26.08721 -80.08106 2130 ft 200 kts 45°
2026-05-03 20:20 26.09807 -80.07041 2285 ft 217 kts 32°
2026-05-03 20:20 26.11192 -80.06257 2411 ft 232 kts 17°
2026-05-03 20:21 26.12799 -80.05650 2559 ft 256 kts 17°
2026-05-03 20:21 26.14547 -80.05108 3131 ft 264 kts
2026-05-03 20:21 26.16387 -80.05089 3838 ft 266 kts 349°
2026-05-03 20:21 26.18177 -80.05625 4531 ft 268 kts 338°
2026-05-03 20:22 26.19945 -80.06319 5228 ft 271 kts 335°
2026-05-03 20:22 26.21576 -80.07342 5795 ft 271 kts 318°
2026-05-03 20:22 26.22846 -80.08862 5961 ft 267 kts 300°
2026-05-03 20:22 26.23634 -80.10715 6001 ft 265 kts 289°
2026-05-03 20:23 26.24288 -80.12626 6000 ft 264 kts 290°
2026-05-03 20:23 26.25031 -80.14466 5997 ft 265 kts 300°
2026-05-03 20:23 26.26212 -80.16047 6001 ft 268 kts 316°
2026-05-03 20:23 26.27768 -80.17194 6000 ft 271 kts 331°
2026-05-03 20:24 26.29464 -80.18138 6002 ft 272 kts 330°
2026-05-03 20:24 26.31158 -80.19090 6032 ft 274 kts 330°
2026-05-03 20:24 26.32863 -80.20053 6642 ft 275 kts 331°
2026-05-03 20:24 26.34579 -80.21022 7294 ft 277 kts 330°
2026-05-03 20:25 26.36302 -80.21996 7911 ft 279 kts 330°
2026-05-03 20:25 26.38137 -80.22759 8557 ft 286 kts 343°
2026-05-03 20:25 26.40169 -80.23045 9207 ft 292 kts 351°
2026-05-03 20:25 26.42175 -80.23246 9835 ft 295 kts 350°
2026-05-03 20:26 26.44233 -80.23458 10218 ft 303 kts 350°
2026-05-03 20:26 26.46395 -80.23686 10335 ft 322 kts 349°
2026-05-03 20:26 26.48734 -80.23935 10477 ft 345 kts 351°
2026-05-03 20:26 26.51142 -80.24187 10806 ft 358 kts 351°
2026-05-03 20:27 26.53674 -80.24445 11308 ft 363 kts 351°
2026-05-03 20:27 26.56199 -80.24701 11813 ft 365 kts 350°
2026-05-03 20:27 26.58690 -80.25016 12265 ft 367 kts 348°
2026-05-03 20:27 26.61226 -80.25417 12723 ft 369 kts 347°
2026-05-03 20:28 26.63766 -80.25860 13206 ft 371 kts 346°
2026-05-03 20:28 26.66324 -80.26320 13675 ft 373 kts 346°
2026-05-03 20:28 26.68898 -80.26781 14140 ft 377 kts 346°
2026-05-03 20:28 26.71444 -80.27427 14602 ft 374 kts 336°
2026-05-03 20:29 26.73889 -80.28442 15054 ft 375 kts 334°
2026-05-03 20:29 26.76341 -80.29472 15509 ft 378 kts 334°
2026-05-03 20:29 26.78814 -80.30505 15929 ft 381 kts 334°
2026-05-03 20:29 26.81307 -80.31544 16303 ft 383 kts 334°
2026-05-03 20:30 26.83813 -80.32588 16735 ft 386 kts 333°
2026-05-03 20:30 26.86341 -80.33641 17223 ft 389 kts 334°
2026-05-03 20:30 26.88883 -80.34705 17637 ft 391 kts 333°
2026-05-03 20:30 26.91438 -80.35776 17976 ft 393 kts 333°
2026-05-03 20:31 26.94009 -80.36853 18298 ft 395 kts 333°
2026-05-03 20:31 26.96596 -80.37925 18572 ft 398 kts 334°
2026-05-03 20:31 26.99206 -80.38982 18827 ft 400 kts 334°
2026-05-03 20:31 27.01833 -80.40033 19085 ft 402 kts 334°
2026-05-03 20:32 27.04470 -80.41085 19333 ft 403 kts 334°
2026-05-03 20:32 27.07117 -80.42142 19575 ft 405 kts 334°
2026-05-03 20:32 27.09776 -80.43214 19830 ft 406 kts 333°
2026-05-03 20:32 27.12428 -80.44332 20073 ft 407 kts 332°
2026-05-03 20:33 27.15069 -80.45495 20340 ft 408 kts 331°
2026-05-03 20:33 27.17713 -80.46685 20591 ft 410 kts 331°
2026-05-03 20:33 27.20364 -80.47884 20840 ft 412 kts 331°
2026-05-03 20:33 27.23033 -80.49083 21100 ft 414 kts 331°
2026-05-03 20:34 27.25711 -80.50280 21358 ft 415 kts 331°
2026-05-03 20:34 27.28404 -80.51478 21618 ft 417 kts 331°
2026-05-03 20:34 27.31110 -80.52678 21875 ft 419 kts 331°
2026-05-03 20:34 27.33828 -80.53880 22137 ft 421 kts 330°
2026-05-03 20:35 27.36565 -80.55088 22383 ft 423 kts 331°
2026-05-03 20:35 27.39326 -80.56262 22640 ft 426 kts 332°
2026-05-03 20:35 27.42132 -80.57390 22908 ft 429 kts 333°
2026-05-03 20:35 27.44961 -80.58491 23184 ft 431 kts 333°
2026-05-03 20:36 27.47807 -80.59584 23437 ft 433 kts 333°
2026-05-03 20:36 27.50664 -80.60685 23694 ft 435 kts 333°
2026-05-03 20:36 27.53529 -80.61803 23913 ft 436 kts 333°
2026-05-03 20:36 27.56399 -80.62940 24123 ft 438 kts 332°
2026-05-03 20:37 27.59271 -80.64087 24342 ft 439 kts 332°
2026-05-03 20:37 27.62154 -80.65241 24557 ft 440 kts 332°
2026-05-03 20:37 27.65047 -80.66400 24783 ft 442 kts 332°
2026-05-03 20:37 27.67946 -80.67564 25005 ft 443 kts 332°
2026-05-03 20:38 27.70856 -80.68733 25237 ft 445 kts 332°
2026-05-03 20:38 27.73779 -80.69906 25465 ft 446 kts 332°
2026-05-03 20:38 27.76710 -80.71078 25708 ft 448 kts 332°
2026-05-03 20:38 27.79656 -80.72252 25958 ft 450 kts 332°
2026-05-03 20:39 27.82573 -80.73414 26202 ft 451 kts 332°
2026-05-03 20:39 27.85540 -80.74595 26421 ft 452 kts 332°
2026-05-03 20:39 27.88513 -80.75781 26623 ft 454 kts 332°
2026-05-03 20:39 27.91490 -80.76976 26836 ft 455 kts 332°
2026-05-03 20:40 27.94476 -80.78177 27040 ft 456 kts 332°
2026-05-03 20:40 27.97477 -80.79385 27241 ft 458 kts 332°
2026-05-03 20:40 28.00479 -80.80591 27446 ft 459 kts 332°
2026-05-03 20:40 28.03494 -80.81804 27644 ft 461 kts 332°
2026-05-03 20:41 28.06522 -80.83022 27870 ft 462 kts 332°
2026-05-03 20:41 28.09555 -80.84240 28028 ft 464 kts 332°
2026-05-03 20:41 28.12606 -80.85464 28208 ft 466 kts 332°
2026-05-03 20:41 28.15661 -80.86695 28382 ft 467 kts 332°
2026-05-03 20:42 28.18721 -80.87931 28543 ft 468 kts 332°
2026-05-03 20:42 28.21791 -80.89172 28700 ft 469 kts 332°
2026-05-03 20:42 28.24872 -80.90417 28854 ft 470 kts 332°
2026-05-03 20:42 28.27964 -80.91664 29014 ft 472 kts 332°
2026-05-03 20:43 28.31062 -80.92915 29146 ft 473 kts 332°
2026-05-03 20:43 28.34159 -80.94165 29280 ft 474 kts 332°
2026-05-03 20:43 28.37275 -80.95425 29464 ft 475 kts 332°
2026-05-03 20:43 28.40390 -80.96685 29621 ft 475 kts 332°
2026-05-03 20:44 28.43503 -80.97945 29787 ft 475 kts 332°
2026-05-03 20:44 28.46619 -80.99206 29952 ft 475 kts 332°
2026-05-03 20:44 28.49730 -81.00466 30115 ft 475 kts 332°
2026-05-03 20:44 28.52844 -81.01728 30270 ft 475 kts 331°
2026-05-03 20:45 28.55959 -81.02995 30427 ft 474 kts 331°
2026-05-03 20:45 28.59061 -81.04258 30604 ft 473 kts 331°
2026-05-03 20:45 28.62158 -81.05514 30787 ft 472 kts 331°
2026-05-03 20:45 28.65241 -81.06764 30965 ft 471 kts 330°
2026-05-03 20:46 28.68319 -81.08013 31222 ft 468 kts 330°
2026-05-03 20:46 28.71382 -81.09258 31457 ft 466 kts 330°
2026-05-03 20:46 28.74426 -81.10498 31673 ft 464 kts 329°
2026-05-03 20:46 28.77460 -81.11736 31867 ft 462 kts 329°
2026-05-03 20:47 28.80486 -81.12974 32058 ft 461 kts 329°
2026-05-03 20:47 28.83456 -81.14189 32265 ft 459 kts 329°
2026-05-03 20:47 28.86459 -81.15419 32465 ft 458 kts 329°
2026-05-03 20:47 28.89492 -81.16662 32658 ft 456 kts 329°
2026-05-03 20:48 28.92432 -81.17867 32845 ft 455 kts 328°
2026-05-03 20:48 28.95410 -81.19082 33040 ft 454 kts 328°
2026-05-03 20:48 28.98376 -81.20290 33124 ft 450 kts 328°
2026-05-03 20:49 29.04226 -81.22674 33117 ft 444 kts 328°
2026-05-03 20:49 29.10038 -81.25076 33119 ft 444 kts 328°
2026-05-03 20:50 29.15844 -81.27475 33120 ft 444 kts 328°
2026-05-03 20:50 29.21652 -81.29860 33121 ft 443 kts 328°
2026-05-03 20:51 29.27544 -81.32076 33172 ft 455 kts 337°
2026-05-03 20:51 29.30733 -81.32534 33165 ft 470 kts 346°
2026-05-03 20:51 29.34002 -81.32717 33167 ft 470 kts 346°
2026-05-03 20:52 29.40533 -81.33072 33158 ft 470 kts 346°
2026-05-03 20:52 29.47054 -81.33439 33153 ft 469 kts 346°
2026-05-03 20:53 29.53577 -81.33833 33158 ft 469 kts 345°
2026-05-03 20:53 29.60083 -81.34224 33149 ft 467 kts 346°
2026-05-03 20:54 29.66566 -81.34608 33152 ft 467 kts 346°
2026-05-03 20:54 29.76304 -81.35185 33153 ft 467 kts 346°
2026-05-03 20:55 29.82796 -81.35577 33156 ft 467 kts 346°
2026-05-03 20:55 29.89286 -81.35966 33184 ft 468 kts 346°
2026-05-03 20:56 29.95791 -81.36347 33173 ft 468 kts 346°
2026-05-03 20:56 30.02292 -81.36735 33167 ft 468 kts 346°
2026-05-03 20:57 30.08791 -81.37124 33166 ft 468 kts 346°
2026-05-03 20:57 30.15307 -81.37509 33167 ft 469 kts 346°
2026-05-03 20:58 30.21775 -81.37897 33146 ft 469 kts 346°
2026-05-03 20:58 30.28291 -81.38291 33139 ft 469 kts 346°
2026-05-03 20:59 30.34862 -81.38685 33140 ft 469 kts 346°
2026-05-03 20:59 30.41386 -81.39074 33140 ft 470 kts 346°
2026-05-03 21:00 30.45706 -81.39330 33137 ft 470 kts 346°
2026-05-03 21:00 30.54453 -81.39809 33147 ft 471 kts 347°
2026-05-03 21:01 30.60995 -81.40147 33153 ft 471 kts 347°
2026-05-03 21:01 30.67501 -81.40482 33180 ft 471 kts 347°
2026-05-03 21:02 30.74090 -81.40826 33178 ft 471 kts 347°
2026-05-03 21:02 30.80625 -81.41181 33165 ft 471 kts 347°
2026-05-03 21:03 30.86066 -81.41475 33160 ft 471 kts 347°
2026-05-03 21:03 30.93670 -81.41878 33158 ft 471 kts 347°
2026-05-03 21:04 31.00213 -81.42226 33167 ft 471 kts 347°
2026-05-03 21:04 31.06760 -81.42585 33150 ft 471 kts 347°
2026-05-03 21:05 31.12241 -81.42873 33146 ft 471 kts 347°
2026-05-03 21:05 31.18791 -81.43218 33138 ft 471 kts 347°
2026-05-03 21:06 31.25300 -81.43564 33180 ft 471 kts 347°
2026-05-03 21:06 31.31909 -81.43754 33144 ft 473 kts 349°
2026-05-03 21:07 31.38504 -81.43771 33142 ft 474 kts 350°
2026-05-03 21:07 31.45101 -81.43751 33138 ft 478 kts 353°
2026-05-03 21:08 31.48447 -81.43257 33147 ft 493 kts
2026-05-03 21:08 31.51793 -81.42131 33183 ft 507 kts 11°
2026-05-03 21:08 31.58452 -81.39384 33151 ft 514 kts 11°
2026-05-03 21:09 31.65236 -81.36579 33147 ft 519 kts 11°
2026-05-03 21:09 31.72088 -81.33756 33130 ft 524 kts 11°
2026-05-03 21:10 31.78980 -81.30926 33166 ft 526 kts 11°
2026-05-03 21:10 31.85878 -81.28079 33100 ft 525 kts 11°
2026-05-03 21:11 31.92772 -81.25225 33103 ft 525 kts 11°
2026-05-03 21:11 31.96260 -81.24075 33076 ft 514 kts
2026-05-03 21:11 31.99762 -81.23556 33080 ft 502 kts 352°
2026-05-03 21:12 32.06723 -81.23242 33162 ft 501 kts 352°
2026-05-03 21:12 32.13689 -81.22897 33149 ft 501 kts 352°
2026-05-03 21:13 32.20653 -81.22538 33143 ft 501 kts 352°
2026-05-03 21:13 32.27611 -81.22194 33141 ft 500 kts 352°
2026-05-03 21:14 32.34563 -81.21856 33170 ft 500 kts 352°
2026-05-03 21:14 32.41466 -81.21514 33163 ft 499 kts 352°
2026-05-03 21:15 32.48412 -81.21094 33164 ft 505 kts 357°
2026-05-03 21:15 32.55393 -81.19557 33158 ft 511 kts
2026-05-03 21:16 32.62366 -81.17941 33124 ft 508 kts
2026-05-03 21:16 32.69300 -81.16339 33118 ft 507 kts
2026-05-03 21:17 32.75112 -81.14996 33112 ft 508 kts
2026-05-03 21:17 32.83179 -81.13142 33119 ft 509 kts
2026-05-03 21:18 32.90126 -81.11543 33122 ft 507 kts
2026-05-03 21:18 32.97048 -81.09931 33120 ft 507 kts
2026-05-03 21:19 33.03966 -81.08315 33123 ft 507 kts
2026-05-03 21:19 33.10889 -81.06710 33133 ft 507 kts
2026-05-03 21:20 33.17808 -81.05116 33136 ft 507 kts
2026-05-03 21:20 33.24736 -81.03499 33135 ft 507 kts
2026-05-03 21:21 33.31667 -81.01867 33129 ft 508 kts
2026-05-03 21:21 33.38595 -81.00241 33123 ft 506 kts
2026-05-03 21:22 33.45493 -80.98623 33117 ft 504 kts
2026-05-03 21:22 33.52374 -80.97009 33116 ft 504 kts
2026-05-03 21:23 33.59266 -80.95391 33102 ft 505 kts
2026-05-03 21:23 33.66147 -80.93774 33095 ft 502 kts
2026-05-03 21:24 33.72985 -80.92150 33099 ft 501 kts
2026-05-03 21:24 33.79818 -80.90529 33083 ft 501 kts
2026-05-03 21:25 33.86665 -80.88926 33077 ft 500 kts
2026-05-03 21:25 33.93512 -80.87610 33105 ft 497 kts 358°
2026-05-03 21:26 34.00301 -80.86497 33109 ft 495 kts 358°
2026-05-03 21:26 34.07134 -80.85341 33138 ft 496 kts 359°
2026-05-03 21:27 34.13959 -80.84109 33189 ft 496 kts 360°
2026-05-03 21:27 34.20742 -80.82856 33116 ft 491 kts 360°
2026-05-03 21:28 34.27501 -80.81626 33120 ft 491 kts 359°
2026-05-03 21:28 34.34256 -80.80409 33130 ft 491 kts 359°
2026-05-03 21:29 34.41024 -80.79184 33163 ft 492 kts 360°
2026-05-03 21:29 34.47785 -80.77949 33148 ft 491 kts 360°
2026-05-03 21:30 34.54537 -80.76719 33136 ft 491 kts 360°
2026-05-03 21:30 34.61291 -80.75486 33123 ft 490 kts 360°
2026-05-03 21:31 34.68026 -80.74256 33110 ft 488 kts
2026-05-03 21:31 34.74727 -80.73031 33109 ft 487 kts
2026-05-03 21:32 34.81427 -80.71805 33109 ft 487 kts
2026-05-03 21:32 34.88132 -80.70572 33117 ft 487 kts
2026-05-03 21:33 34.94842 -80.69334 33152 ft 488 kts
2026-05-03 21:33 35.01541 -80.68095 33165 ft 487 kts
2026-05-03 21:34 35.08241 -80.66863 33163 ft 486 kts
2026-05-03 21:34 35.14927 -80.65630 33190 ft 486 kts
2026-05-03 21:35 35.21601 -80.64399 33174 ft 484 kts
2026-05-03 21:35 35.28255 -80.63157 33170 ft 484 kts
2026-05-03 21:36 35.34869 -80.61922 33151 ft 484 kts
2026-05-03 21:36 35.41562 -80.60680 33126 ft 482 kts
2026-05-03 21:37 35.48124 -80.59456 33113 ft 480 kts
2026-05-03 21:37 35.54732 -80.58221 33107 ft 480 kts
2026-05-03 21:38 35.61343 -80.56987 33106 ft 480 kts
2026-05-03 21:38 35.67950 -80.55755 33108 ft 480 kts
2026-05-03 21:39 35.74556 -80.54506 33107 ft 480 kts
2026-05-03 21:39 35.81157 -80.53264 33107 ft 480 kts
2026-05-03 21:40 35.87765 -80.52017 33120 ft 480 kts
2026-05-03 21:40 35.94363 -80.50769 33115 ft 480 kts
2026-05-03 21:41 36.00957 -80.49528 33105 ft 479 kts
2026-05-03 21:41 36.07545 -80.48284 33092 ft 479 kts
2026-05-03 21:42 36.14135 -80.47037 33110 ft 478 kts
2026-05-03 21:42 36.20680 -80.45790 33108 ft 475 kts
2026-05-03 21:43 36.27202 -80.44548 33111 ft 474 kts
2026-05-03 21:43 36.33730 -80.43311 33112 ft 475 kts
2026-05-03 21:44 36.40259 -80.42070 33136 ft 474 kts
2026-05-03 21:44 36.46773 -80.40794 33127 ft 474 kts
2026-05-03 21:45 36.53236 -80.39460 33117 ft 474 kts
2026-05-03 21:45 36.59731 -80.38108 33112 ft 473 kts
2026-05-03 21:46 36.66224 -80.36768 33107 ft 472 kts
2026-05-03 21:46 36.72698 -80.35445 33098 ft 472 kts
2026-05-03 21:47 36.79176 -80.34299 33094 ft 469 kts 358°
2026-05-03 21:47 36.85659 -80.33452 33139 ft 468 kts 356°
2026-05-03 21:48 36.92141 -80.32638 33132 ft 468 kts 356°
2026-05-03 21:48 36.98620 -80.31742 33127 ft 468 kts 357°
2026-05-03 21:49 37.05087 -80.30795 33125 ft 468 kts 357°
2026-05-03 21:49 37.11540 -80.29853 33110 ft 465 kts 357°
2026-05-03 21:50 37.17942 -80.28934 33109 ft 463 kts 356°
2026-05-03 21:50 37.24350 -80.28023 33113 ft 463 kts 356°
2026-05-03 21:51 37.30764 -80.27111 33100 ft 464 kts 356°
2026-05-03 21:51 37.37116 -80.26197 33105 ft 462 kts 356°
2026-05-03 21:52 37.43496 -80.25271 33104 ft 461 kts 356°
2026-05-03 21:52 37.49866 -80.24349 33102 ft 461 kts 356°
2026-05-03 21:53 37.56240 -80.23435 33135 ft 461 kts 356°
2026-05-03 21:53 37.61569 -80.22668 33105 ft 459 kts 356°
2026-05-03 21:54 37.67880 -80.21757 33104 ft 460 kts 356°
2026-05-03 21:54 37.74273 -80.20803 33097 ft 459 kts 356°
2026-05-03 21:55 37.80583 -80.19849 33103 ft 458 kts 356°
2026-05-03 21:55 37.86884 -80.18892 33088 ft 456 kts 356°
2026-05-03 21:56 37.93181 -80.17953 33087 ft 456 kts 356°
2026-05-03 21:56 37.99493 -80.17018 33107 ft 457 kts 356°
2026-05-03 21:57 38.05813 -80.16067 33119 ft 458 kts 356°
2026-05-03 21:57 38.12139 -80.15103 33119 ft 458 kts 356°
2026-05-03 21:58 38.18472 -80.14145 33115 ft 458 kts 356°
2026-05-03 21:58 38.24792 -80.13197 33154 ft 458 kts 356°
2026-05-03 21:59 38.31116 -80.12248 33144 ft 457 kts 356°
2026-05-03 21:59 38.37429 -80.11324 33134 ft 455 kts 354°
2026-05-03 22:00 38.43706 -80.10837 33135 ft 449 kts 351°
2026-05-03 22:00 38.49942 -80.10636 33133 ft 447 kts 351°
2026-05-03 22:01 38.56158 -80.10398 33118 ft 448 kts 351°
2026-05-03 22:01 38.62396 -80.10062 33117 ft 449 kts 352°
2026-05-03 22:02 38.68637 -80.09695 33101 ft 449 kts 352°
2026-05-03 22:02 38.74882 -80.09334 33116 ft 449 kts 352°
2026-05-03 22:03 38.81015 -80.08974 33077 ft 428 kts 352°
2026-05-03 22:03 38.86877 -80.08642 33081 ft 423 kts 351°
2026-05-03 22:04 38.92759 -80.08230 33078 ft 429 kts 357°
2026-05-03 22:04 38.98687 -80.06971 33084 ft 432 kts 358°
2026-05-03 22:05 39.04612 -80.05693 33076 ft 432 kts 358°
2026-05-03 22:05 39.10533 -80.04412 33080 ft 432 kts 359°
2026-05-03 22:06 39.16455 -80.03131 33106 ft 432 kts 359°
2026-05-03 22:06 39.22383 -80.01859 33090 ft 431 kts 359°
2026-05-03 22:07 39.28300 -80.00577 33083 ft 431 kts 359°
2026-05-03 22:07 39.34220 -79.99287 33079 ft 431 kts 359°
2026-05-03 22:08 39.40141 -79.98003 33104 ft 431 kts 359°
2026-05-03 22:08 39.46056 -79.96717 33073 ft 431 kts 359°
2026-05-03 22:09 39.51968 -79.95427 33063 ft 431 kts 359°
2026-05-03 22:10 39.60837 -79.93488 33080 ft 431 kts 360°
2026-05-03 22:10 39.66758 -79.92200 33069 ft 431 kts 360°
2026-05-03 22:11 39.72679 -79.90899 33071 ft 432 kts 360°
2026-05-03 22:11 39.78597 -79.89588 33067 ft 432 kts 360°
2026-05-03 22:12 39.84524 -79.88282 33089 ft 432 kts
2026-05-03 22:12 39.90446 -79.86981 33082 ft 431 kts
2026-05-03 22:13 39.96366 -79.85673 33079 ft 432 kts
2026-05-03 22:13 40.02245 -79.84367 33079 ft 432 kts
2026-05-03 22:14 40.08164 -79.83058 33088 ft 431 kts
2026-05-03 22:14 40.14074 -79.81748 33071 ft 430 kts
2026-05-03 22:15 40.19963 -79.80436 33058 ft 429 kts
2026-05-03 22:15 40.25845 -79.79123 33036 ft 428 kts
2026-05-03 22:16 40.31751 -79.77811 33029 ft 432 kts
2026-05-03 22:16 40.37672 -79.76500 33030 ft 432 kts
2026-05-03 22:17 40.43604 -79.75170 33034 ft 432 kts
2026-05-03 22:17 40.49518 -79.73832 33020 ft 430 kts
2026-05-03 22:18 40.55414 -79.72504 33038 ft 430 kts
2026-05-03 22:18 40.61319 -79.71180 33031 ft 430 kts
2026-05-03 22:19 40.67221 -79.69844 33057 ft 430 kts
2026-05-03 22:19 40.73120 -79.68506 33064 ft 430 kts
2026-05-03 22:20 40.78972 -79.67181 33057 ft 430 kts
2026-05-03 22:20 40.84865 -79.65837 33049 ft 429 kts
2026-05-03 22:21 40.90791 -79.64494 33064 ft 429 kts
2026-05-03 22:21 40.96643 -79.63172 33047 ft 429 kts
2026-05-03 22:22 41.02530 -79.61826 33043 ft 430 kts
2026-05-03 22:22 41.08425 -79.60482 33032 ft 429 kts
2026-05-03 22:23 41.14315 -79.59132 33041 ft 430 kts
2026-05-03 22:23 41.20211 -79.57782 33030 ft 430 kts
2026-05-03 22:24 41.26103 -79.56428 33010 ft 430 kts
2026-05-03 22:24 41.31996 -79.55069 33015 ft 430 kts
2026-05-03 22:25 41.37890 -79.53703 32998 ft 430 kts
2026-05-03 22:25 41.43786 -79.52321 32993 ft 430 kts
2026-05-03 22:26 41.49695 -79.50952 32986 ft 431 kts
2026-05-03 22:26 41.55600 -79.49592 33008 ft 431 kts
2026-05-03 22:27 41.61511 -79.48224 33004 ft 431 kts
2026-05-03 22:27 41.67426 -79.46845 32991 ft 431 kts
2026-05-03 22:28 41.73336 -79.45456 33002 ft 431 kts
2026-05-03 22:28 41.79251 -79.44068 32997 ft 432 kts
2026-05-03 22:29 41.85169 -79.42679 32982 ft 432 kts
2026-05-03 22:29 41.91093 -79.41304 32973 ft 432 kts
2026-05-03 22:30 41.96983 -79.39929 32973 ft 433 kts
2026-05-03 22:30 42.02914 -79.38526 32961 ft 433 kts
2026-05-03 22:31 42.08855 -79.37109 32953 ft 433 kts
2026-05-03 22:31 42.14808 -79.36300 32692 ft 430 kts 358°
2026-05-03 22:31 42.17798 -79.36072 32041 ft 429 kts 358°
2026-05-03 22:32 42.20759 -79.35832 31537 ft 423 kts 358°
2026-05-03 22:32 42.23682 -79.35590 31014 ft 419 kts 358°
2026-05-03 22:32 42.26575 -79.35352 30507 ft 414 kts 358°
2026-05-03 22:32 42.29436 -79.35121 29988 ft 410 kts 358°
2026-05-03 22:33 42.32267 -79.34891 29443 ft 404 kts 358°
2026-05-03 22:33 42.35052 -79.34660 28957 ft 398 kts 358°
2026-05-03 22:33 42.37788 -79.34437 28477 ft 391 kts 358°
2026-05-03 22:33 42.40486 -79.34218 28007 ft 385 kts 358°
2026-05-03 22:34 42.43138 -79.34007 27550 ft 379 kts 358°
2026-05-03 22:34 42.45745 -79.33800 27106 ft 372 kts 358°
2026-05-03 22:34 42.48301 -79.33592 26679 ft 365 kts 358°
2026-05-03 22:34 42.50815 -79.33384 26255 ft 358 kts 358°
2026-05-03 22:35 42.53282 -79.33185 25860 ft 352 kts 358°
2026-05-03 22:35 42.55706 -79.32994 25458 ft 346 kts 357°
2026-05-03 22:35 42.58096 -79.32804 25072 ft 342 kts 357°
2026-05-03 22:35 42.60468 -79.32617 24673 ft 340 kts 357°
2026-05-03 22:36 42.62824 -79.32429 24291 ft 339 kts 357°
2026-05-03 22:36 42.65171 -79.32239 23899 ft 337 kts 357°
2026-05-03 22:36 42.67505 -79.32050 23497 ft 335 kts 357°
2026-05-03 22:36 42.69831 -79.31861 23065 ft 333 kts 357°
2026-05-03 22:37 42.72140 -79.31671 22662 ft 332 kts 357°
2026-05-03 22:37 42.74437 -79.31482 22269 ft 330 kts 357°
2026-05-03 22:37 42.76694 -79.31295 21873 ft 328 kts 357°
2026-05-03 22:37 42.78993 -79.31102 21463 ft 326 kts 357°
2026-05-03 22:38 42.81256 -79.30914 21071 ft 325 kts 357°
2026-05-03 22:38 42.83473 -79.30788 20674 ft 320 kts 352°
2026-05-03 22:38 42.85679 -79.30992 20263 ft 317 kts 349°
2026-05-03 22:38 42.87868 -79.31215 19876 ft 316 kts 350°
2026-05-03 22:39 42.90055 -79.31436 19487 ft 314 kts 350°
2026-05-03 22:39 42.92228 -79.31655 19094 ft 313 kts 350°
2026-05-03 22:39 42.94394 -79.31869 18702 ft 311 kts 350°
2026-05-03 22:39 42.96552 -79.32083 18316 ft 310 kts 350°
2026-05-03 22:40 42.98699 -79.32297 17907 ft 308 kts 350°
2026-05-03 22:40 43.00829 -79.32511 17639 ft 307 kts 350°
2026-05-03 22:40 43.02949 -79.32723 17265 ft 304 kts 350°
2026-05-03 22:40 43.05052 -79.32934 16898 ft 302 kts 350°
2026-05-03 22:41 43.07135 -79.33145 16535 ft 299 kts 350°
2026-05-03 22:41 43.09201 -79.33356 16174 ft 296 kts 350°
2026-05-03 22:41 43.11246 -79.33568 15815 ft 294 kts 350°
2026-05-03 22:41 43.13278 -79.33776 15460 ft 291 kts 350°
2026-05-03 22:42 43.15287 -79.33982 15117 ft 288 kts 349°
2026-05-03 22:42 43.16609 -79.34116 14877 ft 286 kts 349°
2026-05-03 22:42 43.18583 -79.34313 14535 ft 283 kts 349°
2026-05-03 22:42 43.20542 -79.34504 14184 ft 281 kts 349°
2026-05-03 22:43 43.22485 -79.34693 13844 ft 278 kts 349°
2026-05-03 22:43 43.24408 -79.34886 13471 ft 276 kts 349°
2026-05-03 22:43 43.26321 -79.35079 13120 ft 276 kts 349°
2026-05-03 22:43 43.28231 -79.35270 12775 ft 276 kts 349°
2026-05-03 22:44 43.30114 -79.35647 12427 ft 270 kts 340°
2026-05-03 22:44 43.31868 -79.36485 12109 ft 265 kts 329°
2026-05-03 22:44 43.33531 -79.37576 12038 ft 266 kts 329°
2026-05-03 22:44 43.35199 -79.38653 11941 ft 264 kts 329°
2026-05-03 22:45 43.36864 -79.39720 11788 ft 264 kts 329°
2026-05-03 22:45 43.38547 -79.40801 11239 ft 267 kts 329°
2026-05-03 22:45 43.40224 -79.41876 10747 ft 267 kts 328°
2026-05-03 22:45 43.41896 -79.42948 10381 ft 263 kts 328°
2026-05-03 22:46 43.43566 -79.44019 9881 ft 265 kts 328°
2026-05-03 22:46 43.45236 -79.45094 9402 ft 265 kts 328°
2026-05-03 22:46 43.46900 -79.46167 8939 ft 264 kts 328°
2026-05-03 22:46 43.48556 -79.47233 8519 ft 262 kts 327°
2026-05-03 22:47 43.50177 -79.48271 8308 ft 251 kts 327°
2026-05-03 22:47 43.51725 -79.49260 8185 ft 238 kts 327°
2026-05-03 22:47 43.53193 -79.50201 8086 ft 230 kts 326°
2026-05-03 22:47 43.54637 -79.51134 7976 ft 229 kts 326°
2026-05-03 22:48 43.56068 -79.52056 7839 ft 225 kts 326°
2026-05-03 22:48 43.57479 -79.52961 7694 ft 223 kts 326°
2026-05-03 22:48 43.59007 -79.53520 7555 ft 238 kts 351°
2026-05-03 22:48 43.60650 -79.52863 7405 ft 262 kts 26°
2026-05-03 22:49 43.62020 -79.51104 7249 ft 273 kts 39°
2026-05-03 22:49 43.63306 -79.49220 7087 ft 274 kts 39°
2026-05-03 22:49 43.64605 -79.47291 6920 ft 274 kts 39°
2026-05-03 22:49 43.65900 -79.45368 6760 ft 273 kts 39°
2026-05-03 22:50 43.67195 -79.43449 6596 ft 273 kts 39°
2026-05-03 22:50 43.68492 -79.41531 6435 ft 273 kts 39°
2026-05-03 22:50 43.69787 -79.39624 6256 ft 272 kts 39°
2026-05-03 22:50 43.71081 -79.37719 6096 ft 271 kts 39°
2026-05-03 22:51 43.72377 -79.35819 5934 ft 272 kts 39°
2026-05-03 22:51 43.73672 -79.33925 5785 ft 271 kts 39°
2026-05-03 22:51 43.74967 -79.32034 5623 ft 270 kts 38°
2026-05-03 22:51 43.76256 -79.30150 5460 ft 270 kts 39°
2026-05-03 22:52 43.77593 -79.28368 5312 ft 260 kts 25°
2026-05-03 22:52 43.79176 -79.27366 5256 ft 243 kts
2026-05-03 22:52 43.80796 -79.27267 5191 ft 227 kts 340°
2026-05-03 22:52 43.82241 -79.27926 5082 ft 214 kts 321°
2026-05-03 22:53 43.83384 -79.29154 4958 ft 204 kts 305°
2026-05-03 22:53 43.84149 -79.30761 4811 ft 198 kts 289°
2026-05-03 22:53 43.84504 -79.32577 4688 ft 194 kts 275°
2026-05-03 22:53 43.84454 -79.34368 4555 ft 181 kts 261°
2026-05-03 22:54 43.84050 -79.35998 4427 ft 179 kts 248°
2026-05-03 22:54 43.83324 -79.37424 4305 ft 184 kts 234°
2026-05-03 22:54 43.82385 -79.38651 4175 ft 186 kts 231°
2026-05-03 22:54 43.81438 -79.39880 4050 ft 187 kts 231°
2026-05-03 22:55 43.80494 -79.41105 3921 ft 186 kts 231°
2026-05-03 22:55 43.79550 -79.42333 3793 ft 186 kts 231°
2026-05-03 22:55 43.78613 -79.43552 3661 ft 184 kts 229°
2026-05-03 22:55 43.77715 -79.44794 3444 ft 180 kts 232°
2026-05-03 22:56 43.76857 -79.46046 3204 ft 176 kts 232°
2026-05-03 22:56 43.76063 -79.47210 3045 ft 154 kts 232°
2026-05-03 22:56 43.75364 -79.48231 3007 ft 141 kts 232°
2026-05-03 22:56 43.74703 -79.49203 3011 ft 136 kts 233°
2026-05-03 22:57 43.74057 -79.50155 2995 ft 135 kts 232°
2026-05-03 22:57 43.73412 -79.51105 3006 ft 135 kts 232°
2026-05-03 22:57 43.72770 -79.52049 3005 ft 135 kts 234°
2026-05-03 22:57 43.72123 -79.52999 3005 ft 136 kts 233°
2026-05-03 22:58 43.71470 -79.53956 2850 ft 139 kts 232°
2026-05-03 22:58 43.70833 -79.54899 2495 ft 134 kts 231°
2026-05-03 22:58 43.70184 -79.55841 2163 ft 136 kts 228°
2026-05-03 22:58 43.69513 -79.56805 1587 ft 143 kts 229°
2026-05-03 22:59 43.68849 -79.57842 1111 ft 144 kts 227°
2026-05-03 22:59 43.68149 -79.58796 812 ft 138 kts 230°
2026-05-03 22:59 43.67500 -79.59756 615 ft 136 kts 229°
2026-05-03 22:59 43.66888 -79.60664 574 ft 119 kts 226°
2026-05-03 23:00 43.66521 -79.61184 575 ft 31 kts 226°
2026-05-03 23:00 43.66426 -79.61401 569 ft 27 kts 254°
2026-05-03 23:00 43.66387 -79.61570 574 ft 15 kts 251°
2026-05-03 23:00 43.66375 -79.61679 573 ft 14 kts 287°
2026-05-03 23:01 43.66455 -79.61793 565 ft 17 kts 316°
2026-05-03 23:01 43.66541 -79.61910 565 ft 18 kts 315°
2026-05-03 23:01 43.66594 -79.61983 561 ft 10 kts 315°
2026-05-03 23:01 43.66661 -79.62014 560 ft 11 kts 20°
2026-05-03 23:02 43.66730 -79.61935 562 ft 17 kts 43°
2026-05-03 23:02 43.66817 -79.61826 561 ft 16 kts 42°
2026-05-03 23:02 43.66901 -79.61717 562 ft 19 kts 44°
2026-05-03 23:02 43.66995 -79.61602 564 ft 16 kts 40°
2026-05-03 23:03 43.67067 -79.61508 561 ft 15 kts 43°
2026-05-03 23:03 43.67145 -79.61410 562 ft 15 kts 41°
2026-05-03 23:03 43.67211 -79.61310 567 ft 13 kts 54°
2026-05-03 23:03 43.67277 -79.61265 562 ft 12 kts 336°
2026-05-03 23:04 43.67344 -79.61349 557 ft 17 kts 316°
2026-05-03 23:04 43.67446 -79.61484 563 ft 21 kts 319°
2026-05-03 23:04 43.67537 -79.61599 561 ft 14 kts 316°
2026-05-03 23:04 43.67603 -79.61673 564 ft 11 kts 338°
2026-05-03 23:05 43.67663 -79.61638 568 ft 10 kts 45°
2026-05-03 23:05 43.67717 -79.61560 569 ft 11 kts 47°
2026-05-03 23:05 43.67770 -79.61482 566 ft 11 kts 47°
2026-05-03 23:05 43.67816 -79.61414 569 ft 9 kts 47°
2026-05-03 23:06 43.67838 -79.61369 567 ft 4 kts 79°
2026-05-03 23:06 43.67829 -79.61336 565 ft 4 kts 122°
2026-05-03 23:06 43.67816 -79.61307 573 ft 3 kts 119°
2026-05-03 23:06 43.67801 -79.61271 571 ft 6 kts 121°
2026-05-03 23:07 43.67796 -79.61259 570 ft 0 kts 121°